Theta_e
282 282 282 281 280 280 280 280 280 280 281 282 282 283 284 285 284 283 284 284 283 281 282 282 281 282 283 287 290 291 291 292 293 293 293 293 293 293 293 293 293 293 293 293 293 293 293 293 293 293 293 293 293 293 293 293 293 293 293 293 294 294 295 296 296 297 297 298 298 298 298 299 299 299 300 300 300 300 300 300 300 300 300 301 300 301
282 282 282 281 280 280 280 280 280 281 281 281 282 283 283 282 282 282 282 283 282 282 282 282 282 281 280 285 288 291 291 292 293 293 293 293 293 293 293 293 293 293 293 293 293 293 293 293 293 293 293 293 293 292 292 292 292 292 293 293 293 294 295 295 296 296 297 297 297 298 298 298 299 299 299 299 299 299 299 299 299 300 300 300 300 300
281 281 281 281 281 280 280 280 280 281 281 281 282 282 281 280 281 282 282 283 283 282 282 282 282 281 280 283 287 290 291 292 292 292 292 292 292 293 292 293 293 293 293 293 293 293 293 293 293 293 292 292 292 292 292 292 292 292 292 293 293 294 294 295 295 295 296 296 297 297 297 297 298 298 298 298 298 298 298 298 299 299 300 300 300 300
280 280 281 282 281 280 280 280 281 281 282 282 282 281 280 280 281 281 282 282 282 282 282 281 281 281 281 283 286 289 291 291 292 292 292 292 292 292 292 292 292 293 293 293 293 293 293 293 292 292 292 292 292 292 292 291 292 292 292 292 293 294 294 294 295 295 295 295 296 296 296 296 297 297 297 297 297 297 298 298 298 299 299 299 300 300
279 280 281 281 281 281 280 281 281 282 283 282 281 280 280 280 281 281 281 282 282 282 282 281 281 281 282 282 285 288 290 291 291 291 291 291 291 291 292 292 292 292 292 293 293 293 293 292 292 292 292 292 292 292 291 291 291 291 292 292 293 293 294 294 294 294 294 295 295 295 295 296 296 296 296 297 297 297 297 298 298 298 299 299 299 300
279 281 282 281 281 281 281 281 282 282 282 281 281 280 280 280 280 281 281 281 282 282 282 282 281 281 281 283 285 288 290 290 290 291 290 291 291 291 291 291 291 292 292 292 292 292 292 292 292 292 292 292 292 292 291 291 291 291 291 292 292 293 293 294 294 294 294 294 294 295 295 295 295 296 296 296 296 296 297 297 298 298 298 299 299 300
279 280 281 281 280 281 281 281 282 282 281 281 281 281 280 281 280 280 280 280 281 281 282 282 282 281 281 283 285 288 288 289 289 290 290 290 290 290 290 291 291 291 291 291 292 292 292 292 292 292 292 292 291 291 291 291 291 291 291 292 292 293 293 293 294 294 294 294 294 294 294 295 295 295 296 296 296 296 296 297 297 297 298 298 299 299
279 279 280 279 280 280 280 280 281 281 281 280 280 280 280 281 280 280 279 279 279 280 281 281 282 281 281 282 284 285 285 286 286 287 288 288 289 289 290 290 290 290 291 291 291 291 291 291 291 291 291 291 291 291 291 291 291 291 291 292 292 292 293 293 293 293 293 294 294 294 294 294 295 295 295 295 295 295 296 296 296 297 297 298 298 299
278 278 278 278 278 279 279 279 280 280 280 280 280 279 279 279 280 280 279 279 279 279 280 280 281 281 281 282 282 283 285 285 285 285 286 285 286 287 288 289 289 290 290 290 290 290 291 291 291 291 291 291 290 290 290 291 291 291 291 291 292 292 292 293 293 293 293 293 293 294 294 294 294 294 295 295 295 295 295 295 295 296 296 297 298 298
277 277 278 278 279 279 278 278 279 279 279 279 279 279 279 279 279 279 279 279 280 280 281 280 280 280 281 281 282 282 284 285 286 287 287 286 286 287 287 288 288 288 289 289 290 290 290 290 290 290 290 290 290 290 290 290 290 291 291 292 292 292 292 292 293 293 293 293 293 293 294 294 294 294 294 294 294 294 294 294 294 295 295 296 297 298
277 277 278 278 279 279 278 278 279 279 279 279 279 279 279 279 279 278 278 278 279 280 280 280 280 280 280 281 281 282 283 283 283 285 286 286 287 287 287 287 287 287 288 288 289 289 289 289 289 289 289 289 289 289 289 290 290 291 291 291 292 292 292 292 292 292 293 293 293 293 293 294 294 294 294 294 294 294 294 294 294 294 295 295 296 297
278 278 278 278 278 279 279 278 279 279 278 279 278 278 278 279 279 278 277 277 278 279 279 280 280 280 280 280 281 282 282 281 281 281 282 283 284 285 285 285 285 286 286 287 287 287 288 289 289 289 288 288 288 289 289 289 290 291 291 291 292 292 292 292 292 292 292 293 293 293 293 293 294 294 294 294 294 293 293 293 294 294 294 295 295 296
278 278 278 278 278 278 278 278 278 278 278 278 277 277 277 279 279 279 278 278 278 279 279 279 279 280 280 280 280 281 281 281 281 281 281 281 282 282 282 282 282 283 283 283 283 284 287 287 288 287 287 287 288 288 289 289 290 291 291 291 291 291 292 291 292 292 292 292 292 293 293 293 293 293 293 293 293 293 293 293 293 294 294 294 295 295
277 277 277 277 277 277 277 277 277 277 277 277 277 277 278 279 279 279 278 278 278 278 279 279 279 279 280 279 280 280 280 280 280 280 280 281 281 281 281 281 281 281 281 281 281 282 285 285 285 285 286 286 287 287 288 289 290 291 291 291 291 291 291 291 291 292 292 292 292 292 292 293 293 293 293 293 293 293 293 293 293 293 294 294 295 295
276 276 276 276 276 277 277 277 277 277 277 277 278 278 279 278 278 278 277 277 277 278 278 278 278 278 279 279 279 280 280 280 280 280 279 280 281 281 281 281 281 281 281 280 280 281 284 283 283 282 283 284 285 286 288 289 290 291 291 291 291 291 291 291 291 291 291 292 292 292 292 292 293 293 293 293 293 293 293 293 293 293 293 294 294 294
276 276 275 275 276 276 277 277 277 277 277 277 278 278 278 277 278 277 277 277 277 277 277 276 276 277 277 278 280 280 280 280 279 279 279 280 281 281 281 280 280 280 280 280 280 280 282 281 281 281 282 284 286 287 288 289 290 291 291 291 290 290 291 291 291 291 291 291 292 292 292 292 292 292 292 292 292 292 292 293 293 293 293 294 294 294
276 275 275 275 275 276 277 277 277 277 277 277 278 278 277 277 277 277 277 277 277 276 276 276 275 275 276 277 279 280 281 280 279 279 279 279 280 281 281 280 279 279 279 279 280 280 281 280 280 281 281 284 286 288 288 289 290 290 290 290 290 290 290 290 290 291 291 291 291 291 292 292 292 292 292 292 292 292 292 292 293 293 293 293 293 294
276 275 275 274 275 275 276 277 276 277 277 277 278 278 278 277 277 277 277 276 276 276 275 275 275 275 274 275 277 279 281 280 279 279 278 278 279 280 280 280 279 279 278 279 279 280 280 280 280 281 282 285 287 287 288 289 289 290 290 290 290 290 290 290 290 290 290 291 291 291 291 291 292 292 292 292 292 292 292 292 292 293 293 293 293 293
276 275 275 274 275 275 276 276 277 277 278 278 278 278 277 277 277 277 276 276 276 275 275 275 275 275 275 275 277 279 280 280 279 278 278 278 279 279 280 279 279 278 278 278 279 279 280 279 281 282 284 286 287 287 288 289 289 289 289 289 289 290 290 290 290 290 290 290 291 291 291 291 291 291 291 291 291 292 292 292 292 292 293 293 293 293
275 275 275 275 275 275 275 276 277 278 279 279 279 279 278 277 276 276 276 276 276 276 276 275 275 275 275 276 277 279 280 280 279 278 277 277 278 279 279 279 278 277 277 278 278 279 279 279 279 281 284 285 286 287 288 288 288 288 289 289 289 289 289 289 289 290 290 290 290 290 290 291 291 291 291 291 291 291 291 292 292 292 292 292 292 292
275 274 275 275 275 275 275 276 277 279 281 281 280 279 278 277 276 276 275 276 276 276 276 275 275 275 276 276 277 278 280 279 278 277 277 277 277 277 278 278 277 276 276 277 278 278 278 278 278 279 282 284 286 287 287 287 288 288 288 288 289 289 289 289 289 289 290 290 290 290 290 290 290 291 291 291 291 291 291 291 292 292 292 292 292 292
275 275 274 275 275 276 277 276 277 280 282 281 280 279 278 277 276 276 276 276 276 276 275 275 275 276 276 276 277 278 279 279 278 277 276 275 275 276 278 277 277 276 276 276 277 278 278 278 278 279 282 284 286 286 287 287 287 288 288 288 288 289 289 289 289 289 289 289 289 290 290 290 290 290 290 290 290 291 291 291 291 292 292 292 292 291
276 275 275 275 276 277 277 277 278 280 282 281 281 280 279 278 277 277 276 276 276 275 275 275 276 276 277 277 278 278 279 279 278 277 276 274 274 275 277 277 276 276 275 276 277 277 277 278 278 279 282 284 285 285 286 286 287 287 287 288 288 288 288 288 288 288 289 289 289 289 289 290 290 290 290 290 290 290 290 290 291 291 291 291 291 291
276 275 275 276 276 277 278 279 280 281 282 282 282 281 281 279 278 277 277 276 276 275 275 275 275 275 275 276 277 277 278 278 278 277 275 274 274 275 276 276 276 275 275 276 276 277 277 277 278 279 280 283 284 285 285 286 286 286 287 287 287 287 288 288 288 288 288 288 289 289 289 289 289 289 289 289 290 290 290 290 290 291 291 291 290 290
277 277 277 278 280 281 281 282 283 283 283 283 282 281 281 279 279 278 277 276 275 275 275 273 273 273 274 275 276 276 277 277 277 277 275 274 274 274 276 276 275 275 275 276 276 277 276 277 277 278 279 280 282 284 285 285 286 286 286 287 287 287 287 287 287 287 288 288 288 288 288 288 289 289 289 289 289 289 289 290 290 290 290 290 290 289
282 282 282 283 284 286 286 286 286 286 286 285 283 281 280 277 276 276 275 274 274 274 273 272 272 272 273 274 274 275 276 277 277 277 276 275 274 274 275 276 275 275 275 275 276 276 276 276 277 277 277 278 281 283 284 284 285 285 286 286 286 286 287 287 287 287 287 287 288 288 288 288 288 288 288 288 288 289 289 289 289 289 289 289 289 288
286 286 286 286 286 286 286 286 286 286 286 286 285 283 280 276 274 273 273 273 274 274 272 272 271 272 272 273 273 274 276 277 277 277 277 276 275 274 275 276 276 275 275 275 276 277 277 277 277 277 277 277 279 281 283 284 284 285 285 285 286 286 286 286 286 287 287 287 287 287 287 287 288 288 288 288 288 288 288 289 289 289 289 288 287 287
286 286 286 286 286 285 285 285 285 285 286 286 286 284 280 276 273 272 272 274 274 274 273 272 272 272 272 272 273 274 275 276 277 277 278 277 275 274 275 276 276 276 275 275 276 277 277 277 276 276 276 277 278 279 281 283 284 284 285 285 285 285 285 286 286 286 286 286 286 287 287 287 287 287 287 287 287 288 288 288 288 288 288 286 285 284
285 285 285 285 285 285 284 284 284 284 285 285 285 284 281 276 273 273 273 275 275 275 274 273 273 273 272 273 273 274 274 275 277 278 279 277 275 275 276 276 276 276 275 275 275 275 275 275 275 275 276 278 278 279 279 281 282 282 283 284 284 285 285 285 285 286 286 286 286 286 286 286 286 287 287 287 287 287 287 288 288 287 286 285 284 284
280 281 281 281 282 282 281 280 281 283 284 284 284 283 281 277 275 274 276 276 276 275 274 274 274 274 273 273 273 273 273 274 276 278 279 277 275 275 276 276 276 276 275 274 274 273 273 274 275 276 277 278 278 278 278 279 280 280 281 282 283 283 284 285 285 285 285 285 285 285 285 286 286 286 286 286 286 287 287 287 287 286 284 283 283 283
276 277 276 276 277 277 278 278 278 280 281 282 283 282 280 277 276 275 276 276 276 275 275 275 275 274 274 273 272 272 272 274 277 279 279 277 276 276 276 276 276 276 276 275 273 272 272 273 275 276 277 277 277 277 278 278 279 279 279 279 280 281 283 284 284 284 284 284 285 285 285 285 285 285 285 286 286 286 286 287 286 285 283 283 282 282
275 276 276 275 275 275 276 277 277 276 277 278 279 279 280 279 278 277 276 276 276 276 276 275 275 275 275 274 273 273 273 274 277 280 280 278 277 277 277 276 276 276 277 276 274 273 271 272 274 275 276 276 277 277 278 278 279 279 279 279 279 280 282 283 283 283 283 283 284 284 284 284 284 285 285 285 285 286 286 286 286 285 283 282 282 282
276 276 275 276 275 275 276 275 275 275 276 276 276 277 278 278 279 279 277 276 276 276 276 276 276 275 275 275 275 275 275 275 278 281 281 279 277 277 277 276 276 276 276 276 276 275 273 273 274 275 275 276 276 277 277 278 279 279 279 278 278 278 281 281 281 281 281 282 282 283 283 283 284 284 284 284 285 285 286 286 286 285 284 282 282 281
276 276 275 275 274 274 274 274 274 275 276 276 277 277 277 277 277 278 278 277 276 276 276 276 276 276 275 275 275 275 275 276 279 282 282 279 278 277 277 277 276 276 276 276 275 275 275 274 274 274 275 275 276 276 277 278 278 279 278 278 278 278 279 279 279 280 280 280 280 280 281 281 282 283 283 284 284 284 285 285 285 285 285 283 282 282
275 275 275 274 273 273 274 273 274 275 276 276 277 277 277 277 276 276 277 277 277 277 276 277 277 277 276 276 275 275 275 276 279 282 283 280 279 278 277 277 276 276 276 275 275 275 274 274 275 275 275 275 275 276 277 277 278 278 278 278 278 278 278 278 278 279 279 279 278 278 278 279 279 280 281 282 283 284 284 284 285 285 285 284 284 282
274 274 274 273 273 274 274 274 275 275 276 276 276 276 276 276 276 276 276 276 277 278 278 278 278 278 278 277 277 277 277 278 280 282 283 281 279 278 277 277 277 277 276 275 275 274 274 274 275 275 275 274 274 275 276 277 278 278 278 278 278 278 278 278 278 278 278 277 277 278 278 278 278 279 280 282 283 283 284 284 284 284 284 284 284 284
274 274 274 273 273 274 275 274 274 275 275 276 276 276 277 276 276 276 276 275 275 276 278 279 280 280 280 280 279 279 279 280 281 281 282 281 280 278 277 277 277 278 276 275 275 275 274 274 274 274 274 274 274 274 276 277 277 277 277 278 278 278 278 278 278 278 277 277 278 278 278 278 278 279 280 281 282 282 282 283 283 283 284 284 284 284
274 274 274 274 273 274 274 274 275 276 276 276 277 277 277 276 275 275 276 275 274 275 277 278 278 278 280 281 281 281 281 281 280 280 280 279 279 278 278 277 278 278 277 276 276 275 274 274 273 273 273 273 274 275 276 276 276 276 276 277 278 278 277 278 278 278 278 277 278 278 279 279 278 278 278 279 279 279 279 279 280 282 283 283 283 284
273 273 273 274 274 274 274 274 276 276 277 277 277 278 277 277 277 276 276 276 276 276 277 278 278 277 277 278 280 282 282 281 280 279 277 277 277 278 278 277 277 277 278 277 277 276 275 274 273 273 273 273 274 275 276 276 276 276 276 277 277 277 277 278 278 278 278 277 278 278 278 278 278 278 277 278 277 277 277 277 278 280 280 280 280 282
273 273 273 276 276 275 274 275 276 277 277 277 278 279 278 278 277 277 277 277 278 278 278 279 279 279 279 280 281 281 280 279 279 278 276 276 277 278 279 278 277 277 277 277 277 276 275 274 274 274 274 274 274 274 275 275 276 276 277 276 276 276 278 278 278 277 277 277 277 277 277 277 278 278 277 277 277 277 277 277 277 278 279 278 278 278
274 273 274 275 276 277 277 277 277 277 277 277 277 277 277 277 277 277 278 278 279 279 278 278 278 278 278 279 278 277 277 277 277 278 276 275 277 278 279 278 278 278 277 277 277 276 276 275 275 275 275 275 275 275 275 275 276 277 278 276 276 276 277 278 278 278 277 277 277 277 278 278 278 278 278 278 278 277 277 277 277 278 279 278 277 277
276 275 274 275 276 276 276 276 277 277 277 276 276 276 277 277 278 278 278 278 278 278 279 278 278 277 277 277 276 276 275 275 276 277 276 276 276 278 279 279 278 278 277 277 276 276 276 276 276 275 275 275 274 274 274 275 276 277 277 277 277 277 277 278 277 277 277 277 277 278 279 278 278 278 278 278 278 278 278 278 278 279 279 278 277 277
275 275 274 274 275 275 276 277 277 277 277 276 276 276 277 277 278 278 279 278 278 278 278 278 278 277 277 276 276 276 275 274 275 276 277 276 276 277 279 279 278 278 277 277 276 276 276 277 276 275 274 274 274 274 274 275 276 277 277 277 277 276 275 275 276 277 277 277 278 278 278 278 278 278 278 278 278 278 278 279 279 280 280 278 277 277
275 275 274 274 275 276 276 276 276 276 276 275 276 276 277 278 279 279 279 278 277 277 278 278 278 277 276 276 276 276 277 276 275 275 276 278 279 279 279 278 278 278 277 276 276 276 275 276 275 275 275 274 274 274 274 274 275 276 276 277 277 276 275 275 276 277 277 277 277 278 278 278 278 278 278 278 278 277 277 277 277 277 279 278 278 277
274 275 275 276 276 276 275 275 275 277 277 278 277 277 277 278 279 279 279 278 277 277 277 277 277 276 275 276 276 276 277 277 276 276 275 278 280 281 280 278 278 277 277 276 276 275 275 274 274 275 275 275 274 273 273 274 275 275 276 277 277 277 276 277 277 277 277 277 277 278 278 279 279 278 278 277 277 277 277 277 277 277 277 277 277 277
275 274 274 275 274 274 275 276 276 277 277 277 278 278 278 278 279 279 279 278 277 277 277 278 277 276 275 276 276 276 277 277 277 277 277 276 276 277 278 279 280 279 278 277 276 276 275 275 275 275 275 274 273 272 272 273 274 275 275 276 276 276 277 277 277 277 277 277 277 278 279 279 278 278 277 277 277 277 277 277 277 277 277 277 277 277
274 273 273 274 274 274 274 276 277 277 277 277 277 278 278 278 278 278 278 278 277 277 277 277 277 276 275 276 276 276 276 276 276 276 277 277 277 277 277 279 280 280 279 279 278 277 276 276 275 274 274 273 272 272 272 273 273 274 275 276 276 276 276 276 277 277 278 278 278 278 279 279 278 277 277 277 276 276 276 277 277 277 277 277 277 277
276 275 275 275 275 275 275 275 276 276 276 276 277 277 278 278 278 278 278 277 277 277 277 277 276 276 276 276 276 277 277 276 276 276 277 277 277 278 278 278 279 279 279 280 279 279 278 276 275 274 273 272 271 272 273 273 273 274 275 276 276 276 275 276 277 278 278 278 278 279 279 278 277 277 277 276 276 276 276 276 277 277 277 277 277 277
276 275 276 276 276 276 276 275 275 275 276 276 276 277 277 278 279 279 278 277 277 277 276 276 276 276 276 276 276 277 277 277 277 277 277 277 277 278 278 278 278 278 278 278 277 276 276 276 276 276 275 273 272 272 273 273 274 275 276 276 276 276 276 276 277 278 278 278 279 279 279 278 278 278 277 276 276 275 276 276 277 277 277 278 278 278
274 273 276 276 276 276 276 276 276 276 276 276 276 276 277 277 278 278 277 277 277 277 276 276 276 276 275 276 276 277 277 277 276 276 276 277 277 277 277 277 277 277 277 276 276 276 275 275 276 278 280 279 277 274 273 273 274 275 276 276 276 276 276 277 277 278 279 279 279 279 279 278 278 278 278 276 276 276 276 276 276 277 278 278 278 279
274 273 275 275 275 275 276 276 276 276 276 276 276 276 276 277 277 277 277 277 277 277 277 277 276 276 276 276 276 277 277 276 276 276 276 277 277 277 277 277 277 276 276 275 275 275 275 274 274 275 278 281 281 279 275 274 275 275 276 276 277 277 277 277 278 278 279 279 279 279 278 278 278 278 278 277 276 276 275 276 276 277 278 278 279 279
Wind_Speed
2 2 2 3 3 3 3 3 3 4 4 5 5 5 5 6 6 6 7 7 6 6 6 6 7 7 9 13 16 18 19 19 20 20 21 21 21 22 21 21 21 20 20 20 19 19 18 18 18 18 18 18 18 18 18 19 19 20 21 21 22 23 23 24 24 24 24 24 24 24 24 24 24 24 24 24 24 24 24 24 24 24 24 24 24 24
3 3 3 3 3 3 3 3 3 4 5 5 5 6 6 6 5 5 5 6 6 6 6 6 7 7 7 10 14 17 19 19 20 20 21 21 22 22 22 22 21 21 21 20 20 19 19 18 18 18 18 18 18 18 18 18 19 20 20 21 22 23 23 23 24 24 24 24 24 24 24 25 24 24 24 24 24 23 23 23 24 24 24 24 24 24
3 3 4 3 3 2 2 3 3 4 4 5 5 6 6 6 5 5 5 6 6 6 6 6 6 7 7 8 12 17 18 19 19 20 21 22 22 23 23 22 22 22 21 21 20 20 19 19 18 18 18 17 17 17 18 18 19 19 20 21 22 23 23 23 24 24 24 24 24 24 24 24 24 24 24 24 23 23 23 23 24 24 24 24 24 24
3 3 3 3 2 2 2 2 3 4 4 4 5 5 5 5 5 5 5 6 6 6 6 6 6 6 6 7 10 14 18 19 19 20 21 22 22 23 23 23 23 22 22 21 21 20 20 19 19 18 18 18 17 17 17 18 18 19 20 21 22 22 23 23 23 24 24 24 24 24 24 24 24 24 24 24 23 23 23 23 24 24 24 24 24 25
3 3 3 2 2 2 2 2 2 4 5 5 5 5 4 4 4 4 5 6 6 6 6 6 6 6 5 6 9 13 17 18 19 19 20 22 22 23 23 23 23 23 22 22 21 21 20 20 19 19 18 18 18 17 17 18 18 19 20 21 22 22 23 23 23 23 24 24 24 24 24 24 24 24 24 23 23 23 23 24 24 24 24 24 24 25
3 2 2 2 2 2 2 2 3 3 4 4 5 5 4 4 4 4 4 5 6 6 6 5 5 5 5 6 10 14 16 17 18 19 20 21 22 23 23 23 23 23 23 22 22 21 21 20 20 19 19 19 18 18 18 18 19 19 20 21 22 22 23 23 23 23 24 23 24 24 24 24 24 24 23 23 23 23 23 23 24 24 24 24 24 25
3 2 2 2 2 2 1 2 3 3 3 4 4 4 4 4 4 4 4 5 5 5 5 5 5 5 6 7 10 12 13 14 15 16 18 20 21 22 23 23 24 23 23 23 22 22 21 21 20 20 20 19 19 18 18 18 19 20 20 21 22 22 23 23 23 23 23 23 23 24 23 23 23 23 23 23 23 23 23 23 24 24 24 24 24 25
3 3 2 2 2 2 2 2 3 3 4 3 4 4 4 4 4 4 5 5 4 4 4 5 5 5 5 7 8 9 8 9 9 11 14 16 18 19 21 22 23 23 23 23 22 22 21 21 21 20 20 20 20 19 19 19 19 20 21 21 22 22 23 23 23 23 23 23 23 24 24 24 23 23 23 23 23 23 23 23 23 23 24 24 24 24
2 3 3 2 2 2 2 2 3 3 4 4 4 4 4 5 5 5 5 5 4 4 4 5 5 6 6 6 6 7 7 7 7 8 10 11 13 15 18 19 20 22 23 23 23 22 22 21 21 21 21 20 20 20 20 20 20 20 21 21 22 22 22 23 23 23 23 23 23 23 24 24 23 23 23 23 23 23 23 23 23 23 23 24 24 24
2 2 3 2 2 2 2 2 3 3 3 3 3 3 4 5 6 6 6 6 5 5 4 5 6 7 7 6 6 6 6 7 9 11 13 13 15 16 17 17 17 19 22 22 22 22 22 22 21 21 21 21 21 21 21 21 21 21 21 21 22 22 22 23 23 23 23 23 23 23 23 23 23 23 23 23 23 23 23 23 23 23 23 23 24 24
3 3 3 3 2 2 2 2 2 3 3 4 3 3 3 4 5 7 8 8 7 7 6 5 6 7 7 7 6 5 5 6 7 10 12 14 15 17 17 16 17 18 20 20 21 21 21 21 21 21 21 21 21 21 21 21 21 21 21 21 22 22 22 23 23 23 23 23 23 23 23 23 23 23 23 23 23 23 22 22 23 23 23 23 23 24
2 3 3 3 3 3 3 3 3 3 3 4 4 5 5 4 5 5 7 8 9 8 8 6 6 5 6 6 6 6 5 6 6 7 7 9 10 11 12 12 13 14 15 16 17 18 20 21 21 20 20 21 21 21 21 21 21 21 21 21 22 22 23 23 23 23 23 23 23 23 23 23 23 23 23 23 23 22 22 22 22 22 23 23 23 23
2 2 3 3 3 3 3 3 3 3 4 4 5 6 6 5 5 5 5 6 7 8 8 7 6 5 5 4 5 5 6 6 6 6 6 6 6 7 7 8 8 9 9 10 10 12 16 18 18 18 19 20 21 21 22 22 22 22 22 22 22 22 23 23 23 23 23 23 23 23 23 23 23 23 23 23 22 22 22 22 22 22 22 23 23 23
2 3 3 3 3 3 3 3 4 4 4 4 4 5 5 5 5 5 5 6 6 6 6 7 7 6 4 4 4 4 5 7 7 7 7 6 6 6 6 7 7 7 7 7 8 9 12 13 13 13 17 18 20 20 21 21 22 22 22 22 22 23 23 23 23 23 23 23 23 23 23 23 23 23 23 22 22 22 22 22 22 22 22 23 23 23
3 3 3 3 3 3 3 3 4 4 4 3 4 4 4 5 5 6 6 7 7 7 6 6 6 6 4 3 4 5 6 7 7 7 8 7 6 6 6 7 7 7 7 8 8 9 11 10 9 9 12 15 18 19 20 20 21 22 22 22 23 23 23 23 23 23 23 23 23 23 23 23 23 23 23 22 22 22 22 22 22 22 22 23 23 22
2 3 3 3 3 3 3 3 3 4 4 4 4 4 5 5 6 6 6 7 7 7 7 7 7 6 4 3 4 5 7 7 8 8 8 7 6 6 6 7 8 8 8 8 8 8 8 8 8 9 11 16 19 22 23 22 22 22 22 23 23 23 23 23 23 23 23 23 23 23 23 23 22 22 22 22 22 22 22 22 22 22 22 22 22 22
2 2 2 3 3 3 3 3 3 3 4 4 4 4 5 5 5 6 6 6 6 6 5 6 7 7 6 5 5 6 8 8 8 8 8 7 7 6 6 7 8 9 8 8 8 8 8 8 9 9 11 16 20 23 23 23 23 23 23 23 23 24 24 23 23 23 23 23 23 23 23 23 22 22 22 22 22 22 22 22 22 22 22 22 22 22
2 2 2 2 3 3 3 3 3 3 4 4 4 4 4 4 4 5 5 5 5 5 5 5 5 5 6 6 7 7 8 8 8 8 8 7 7 6 6 6 7 8 8 8 8 8 8 8 9 11 13 19 22 23 23 23 23 23 24 24 24 24 24 24 23 23 23 23 23 23 23 23 23 22 22 22 22 22 22 22 22 22 22 22 22 21
2 2 2 2 2 3 3 3 3 4 4 5 6 6 6 5 5 5 4 5 5 5 5 5 5 5 5 6 7 8 9 8 8 8 8 8 7 6 6 7 8 8 8 8 8 8 8 9 11 14 18 22 23 23 24 24 24 24 24 24 24 24 24 24 24 24 24 24 24 24 23 23 23 22 22 22 22 22 22 22 22 22 22 22 21 21
2 2 2 1 2 3 3 3 3 4 5 6 6 6 6 6 6 5 5 5 4 4 4 4 5 5 6 7 8 9 8 7 7 7 7 7 7 7 7 8 9 9 8 8 8 8 9 9 10 13 18 20 22 23 24 24 24 25 25 25 24 24 24 24 24 24 24 24 24 24 24 24 23 23 23 22 22 22 22 22 22 22 22 22 21 20
1 1 1 1 1 2 3 3 3 4 6 6 6 5 5 6 6 5 5 5 6 5 5 5 5 5 5 7 8 8 8 7 7 7 6 6 6 6 7 7 8 8 9 8 8 8 9 9 9 10 14 19 21 23 24 25 25 25 25 25 25 25 24 24 24 24 24 25 25 24 24 24 23 23 23 23 23 23 23 22 22 22 22 22 21 20
1 1 2 1 1 1 2 2 3 4 6 6 5 5 5 6 6 6 6 6 6 6 6 6 6 6 6 7 7 7 6 6 6 6 6 6 7 7 7 7 8 8 9 9 9 9 9 9 8 10 14 19 22 23 24 25 25 25 25 25 25 25 25 25 25 25 25 25 25 25 24 24 24 24 23 23 23 23 23 23 23 23 23 22 21 20
1 0 1 1 1 1 2 2 3 3 4 4 4 4 3 4 5 6 6 5 5 5 5 5 6 6 5 6 6 5 5 5 5 5 5 7 8 8 7 7 8 8 8 8 9 9 9 8 8 9 13 18 21 23 24 25 25 26 25 25 25 25 25 25 25 25 25 25 25 25 25 24 24 24 24 24 23 23 23 23 23 23 23 22 21 20
1 0 1 2 2 2 2 2 3 3 3 2 2 2 2 3 3 4 4 4 4 4 5 5 5 5 4 5 5 5 5 5 4 4 5 6 6 7 7 7 8 9 9 8 9 9 9 8 8 8 9 15 19 22 24 25 25 26 25 25 25 25 25 25 25 25 26 26 25 25 25 25 24 24 24 24 24 24 24 24 24 24 23 22 21 19
1 1 2 2 2 3 3 3 4 4 4 2 2 2 3 3 4 4 3 3 3 4 5 5 5 5 4 5 5 5 5 4 4 5 5 5 6 6 6 7 8 9 9 8 8 8 8 8 7 7 7 11 16 21 23 24 25 25 25 25 25 25 25 25 25 26 26 26 26 25 25 25 25 25 25 24 24 24 24 24 24 24 23 22 20 19
1 1 2 3 5 7 8 9 9 9 9 6 4 3 3 3 3 3 3 3 4 4 5 5 5 5 5 5 5 5 5 4 4 4 5 5 6 6 6 6 7 8 9 8 8 8 9 8 7 6 6 8 13 18 22 24 25 25 25 25 25 25 25 25 26 26 26 26 26 26 25 25 25 25 25 25 25 25 25 25 25 24 23 21 19 18
6 6 7 8 9 10 11 11 12 12 12 11 9 7 4 3 3 4 4 4 5 5 5 5 6 6 5 5 5 5 5 4 4 4 5 5 6 6 6 7 8 9 10 9 8 8 9 8 7 6 6 7 9 13 19 22 23 24 24 24 25 25 25 25 26 26 26 26 26 26 26 25 25 25 25 25 25 25 25 25 25 24 22 19 16 14
8 9 9 10 10 11 11 11 11 12 12 12 12 11 6 4 3 4 4 5 5 5 5 6 6 6 6 6 5 5 4 4 4 5 6 5 5 5 6 7 8 9 10 9 8 8 8 6 5 5 6 7 8 11 15 19 21 22 22 23 24 24 25 25 25 26 26 26 26 26 26 25 25 25 25 25 25 25 25 25 25 23 19 15 11 9
8 8 9 9 10 10 10 9 10 11 12 12 12 11 7 3 2 3 4 4 5 5 6 6 6 6 6 6 5 5 4 3 4 5 7 6 5 5 6 7 7 8 9 8 8 6 5 4 4 4 6 8 9 10 11 14 16 17 18 21 22 23 24 25 25 26 26 26 26 26 26 25 25 25 25 25 25 25 25 26 24 20 15 12 10 8
5 5 6 7 7 7 6 5 6 8 10 11 11 10 7 2 1 2 3 4 4 5 6 6 6 6 6 6 6 5 3 3 4 6 7 6 6 6 6 7 7 7 7 8 8 7 5 4 4 4 6 9 9 9 8 10 10 11 12 15 17 19 22 24 25 25 25 25 26 26 26 26 25 25 25 25 25 25 25 26 22 17 11 10 9 9
3 3 3 3 4 4 3 3 3 5 7 8 8 7 6 3 1 1 2 3 3 4 5 5 6 6 6 6 5 5 4 4 5 7 7 6 5 6 6 7 7 7 6 6 6 7 8 7 6 6 7 8 9 8 8 9 9 9 9 10 11 14 19 22 23 23 23 24 25 25 26 25 25 25 25 25 25 25 25 25 22 16 10 9 9 9
2 2 2 2 3 3 3 3 3 3 3 4 4 4 4 4 3 2 2 2 2 3 4 5 5 6 5 5 4 4 4 4 6 8 8 6 5 5 6 6 6 6 5 5 5 6 7 7 7 8 8 8 8 8 8 9 8 8 9 9 9 11 17 19 19 19 19 21 22 24 24 25 25 25 25 25 25 25 26 26 23 18 11 10 9 9
2 2 2 3 3 3 3 3 3 3 3 3 3 3 3 4 3 3 2 2 2 2 3 4 5 6 6 5 5 4 4 4 7 9 9 6 5 4 5 6 7 7 6 5 5 5 5 6 7 8 8 7 7 7 7 8 8 9 9 9 9 10 13 14 14 15 15 16 18 19 21 22 23 24 24 24 25 25 25 26 24 20 15 11 10 10
3 3 3 3 3 3 3 3 3 3 3 3 3 3 3 3 3 3 3 3 2 2 2 3 4 5 6 6 5 5 5 5 7 10 10 6 5 5 5 6 7 7 7 6 6 6 5 7 7 8 8 7 6 6 6 7 8 8 8 8 8 9 10 11 11 11 12 13 12 13 15 16 18 19 21 22 23 24 25 25 25 23 20 15 11 10
3 3 3 3 3 3 3 3 3 3 3 3 4 4 4 4 3 3 3 3 3 3 3 3 3 4 5 5 6 6 6 6 8 10 9 6 5 4 5 5 6 7 8 7 7 7 6 7 9 9 8 8 7 6 6 6 7 7 7 8 8 8 8 9 9 10 11 11 11 10 11 11 12 14 16 19 22 23 25 25 24 24 22 19 16 13
3 3 3 3 3 4 4 4 4 4 4 4 4 4 4 4 4 4 4 4 4 4 4 4 4 3 3 4 5 6 7 7 8 9 9 6 5 4 4 5 6 7 7 8 8 8 7 8 9 10 10 9 8 7 6 6 7 7 7 8 8 8 8 8 8 9 9 10 10 10 10 10 11 12 13 18 21 23 24 24 23 23 22 21 20 17
3 3 4 3 3 4 4 4 4 4 4 4 4 4 5 4 4 4 4 4 4 4 5 5 5 5 5 5 5 6 7 7 7 7 7 5 4 4 4 5 6 7 7 8 8 8 8 9 9 9 9 8 7 7 8 8 8 8 8 8 8 8 8 8 8 8 9 10 10 11 11 11 11 11 13 18 20 20 21 21 21 21 21 21 20 20
3 3 4 4 4 4 4 4 4 4 4 4 5 5 5 5 4 4 4 4 5 5 5 4 5 5 7 8 8 7 7 7 7 7 7 5 4 4 5 5 6 6 6 7 7 8 8 9 9 10 9 8 8 9 10 10 10 9 9 8 7 7 7 7 8 8 8 9 11 11 12 11 10 10 11 13 13 13 13 13 15 17 18 18 18 19
3 4 4 4 4 4 4 4 4 4 4 5 5 5 5 5 4 4 4 4 5 5 5 5 5 5 6 8 9 9 9 7 7 6 6 5 4 4 5 5 6 6 6 6 6 7 7 8 8 8 8 9 9 9 9 9 10 10 10 9 8 6 7 7 8 8 9 9 11 11 11 10 10 9 10 10 10 10 11 11 12 13 14 12 13 15
4 4 4 5 4 4 4 4 4 4 4 5 5 5 5 5 4 4 4 4 5 5 5 5 5 5 6 6 7 7 7 6 6 6 5 4 4 4 4 5 6 6 7 6 6 6 7 7 8 8 9 8 9 9 9 9 10 11 12 10 8 7 9 9 8 8 8 8 9 10 10 10 10 10 10 10 10 9 9 9 10 11 11 10 9 9
4 4 4 4 4 4 4 4 4 4 4 4 4 4 4 5 4 4 4 5 5 5 4 5 5 4 4 5 5 5 5 5 5 5 4 5 5 5 5 5 6 6 7 7 6 6 7 7 8 9 8 9 9 10 10 10 11 13 13 11 9 9 10 9 9 8 9 9 9 10 11 11 11 11 10 10 9 8 8 8 9 10 10 8 7 7
5 4 4 4 4 4 4 4 5 5 5 4 4 4 5 5 5 6 6 6 6 6 6 6 6 5 5 4 4 4 4 5 5 5 5 6 6 6 5 5 5 6 6 7 7 7 7 8 8 8 8 9 9 9 9 10 10 11 11 11 11 11 10 9 8 8 9 10 10 10 12 11 11 10 11 10 9 8 8 9 10 11 11 8 7 6
4 4 4 4 4 4 4 5 5 5 4 4 4 4 4 5 5 6 6 6 7 7 7 7 7 7 6 5 5 4 4 4 4 4 5 5 6 6 6 6 6 6 6 7 7 8 8 8 8 7 7 7 7 8 10 10 10 10 9 10 11 11 8 8 8 9 9 10 10 10 10 10 10 10 10 9 9 8 8 9 10 11 10 9 7 6
3 3 3 4 4 4 4 4 4 4 4 4 4 4 5 5 6 7 6 6 6 6 7 6 6 6 6 6 6 6 5 4 4 4 4 6 7 7 7 6 6 6 5 6 7 7 8 8 7 6 6 6 6 7 8 9 9 9 9 10 10 10 8 9 10 11 10 10 10 10 10 10 10 10 10 9 8 8 7 7 7 7 8 8 7 6
3 3 4 4 4 4 4 4 4 5 5 6 6 5 5 6 7 7 6 6 6 6 6 6 6 6 6 7 7 6 6 5 5 4 4 6 8 9 8 7 6 6 5 5 5 6 7 7 7 7 6 5 5 6 7 7 8 9 10 10 10 10 9 9 10 10 10 10 10 10 11 11 11 11 10 9 8 8 7 8 8 7 7 7 6 6
3 3 4 4 4 4 5 5 5 5 6 6 6 6 6 6 6 6 6 6 6 6 6 6 6 6 7 8 8 7 8 7 6 6 5 5 5 6 6 7 7 6 6 5 5 5 5 6 7 7 7 6 5 5 5 5 6 8 9 10 10 9 9 9 9 9 10 10 11 11 12 12 11 10 10 10 10 9 7 8 8 8 7 7 7 6
4 4 4 4 4 4 4 5 5 6 6 6 6 6 6 6 6 6 6 6 6 6 7 6 6 7 7 8 8 8 9 9 9 8 7 7 6 6 6 6 7 7 7 6 6 6 6 6 6 6 5 5 5 4 4 4 5 7 9 9 9 9 9 9 9 9 9 10 10 11 13 12 11 11 11 11 10 9 8 7 7 7 7 7 7 7
5 5 5 5 4 4 5 5 5 5 5 6 6 6 6 7 8 7 6 6 6 6 7 7 7 7 7 7 7 8 9 9 9 9 9 8 8 8 7 7 7 7 7 7 7 7 6 7 6 6 5 4 4 4 5 5 5 6 8 9 9 9 9 9 9 9 9 10 11 11 12 11 10 11 11 11 11 10 9 9 8 7 6 6 6 7
5 5 5 5 5 5 6 5 5 5 6 6 6 6 6 7 8 8 6 6 6 6 6 7 7 7 7 7 8 8 9 9 9 8 8 8 8 8 9 9 8 7 7 6 6 5 5 5 6 6 5 3 3 3 5 5 6 6 7 8 8 8 9 9 9 9 9 10 11 11 11 9 9 9 10 11 11 11 11 10 9 7 6 6 6 7
4 4 5 5 5 5 5 5 6 6 6 6 6 6 6 6 6 6 5 5 6 6 6 7 7 7 8 8 8 8 9 8 8 8 8 8 8 9 9 10 10 9 8 7 6 6 5 4 4 4 4 3 3 3 4 5 6 7 7 7 7 8 8 9 9 9 10 10 10 11 11 10 9 8 8 10 11 12 12 11 10 9 8 7 7 8
4 4 4 4 4 5 5 5 6 6 6 7 7 6 6 6 6 6 5 6 6 6 6 6 7 7 8 8 8 8 9 8 8 9 9 8 8 9 9 9 10 10 10 9 9 8 7 6 5 4 4 5 7 6 4 5 6 8 8 8 7 7 7 8 9 9 10 10 10 10 10 10 9 9 8 9 10 11 11 11 12 11 10 9 9 9
Wind_Direction
347 336 340 5 7 356 331 345 5 12 359 351 345 340 336 338 335 333 337 339 336 330 327 322 320 320 322 327 330 331 332 334 337 339 342 342 342 342 341 340 340 340 340 340 341 341 341 341 341 341 342 343 344 345 346 346 347 347 346 345 344 343 343 343 343 343 344 343 343 342 341 341 341 341 342 343 344 345 345 344 343 342 342 343 343 341
352 349 347 359 5 357 325 335 356 9 2 352 345 341 339 336 334 333 335 336 334 331 326 322 320 319 319 322 326 330 331 334 337 340 342 343 342 342 341 340 339 339 339 340 340 341 341 341 341 341 341 343 344 345 345 346 347 347 346 345 344 343 343 343 343 344 344 343 343 342 342 341 341 341 342 343 344 345 345 344 343 343 343 343 343 342
352 352 345 347 354 352 328 335 350 2 3 351 344 339 336 335 335 335 336 335 333 330 324 321 319 319 320 320 325 328 330 334 337 341 343 343 343 342 341 340 339 338 338 339 340 340 341 341 341 341 341 342 343 344 345 346 347 346 346 344 344 343 343 343 343 344 344 344 343 343 342 341 341 341 342 343 344 345 345 345 344 343 344 344 343 342
348 348 338 340 342 341 326 337 350 356 357 349 341 337 336 336 335 334 333 332 330 327 322 319 319 320 321 320 323 326 330 334 338 341 343 343 343 342 341 340 339 338 338 338 339 340 341 341 341 341 341 341 342 343 345 346 346 346 345 344 343 343 343 343 344 344 345 345 344 343 342 342 341 342 342 344 345 346 346 345 345 344 344 344 343 342
337 339 333 338 338 332 320 344 354 355 351 345 340 337 337 335 332 332 331 330 329 326 323 322 322 322 323 321 322 326 331 335 339 341 343 343 343 342 341 340 339 338 338 338 338 339 340 341 341 341 341 341 342 343 344 345 345 345 344 343 342 342 342 343 344 345 346 345 344 343 342 342 342 342 343 344 345 346 346 346 345 345 345 344 343 342
322 323 328 339 336 328 325 352 1 359 350 344 340 336 334 333 333 333 333 330 329 326 325 325 325 324 323 322 324 327 331 335 339 342 343 343 342 342 341 340 339 339 338 338 338 339 340 340 341 341 341 342 342 343 344 345 344 344 343 342 342 342 343 344 345 346 346 345 344 343 342 342 342 343 343 345 346 346 347 346 346 345 345 344 343 343
314 316 326 335 333 330 334 354 3 3 355 346 340 337 334 335 335 335 332 328 325 324 324 325 325 325 324 323 324 327 329 334 338 341 343 342 342 341 341 340 340 339 338 338 338 339 339 340 340 341 342 342 343 343 343 344 343 342 341 341 341 342 343 344 345 346 346 345 344 343 343 342 342 343 344 345 346 346 347 346 346 345 344 344 343 343
321 322 329 337 342 344 343 348 358 2 359 350 342 338 337 338 337 334 330 327 325 325 326 328 329 328 327 325 325 325 326 332 338 342 343 341 340 340 340 340 339 339 338 338 338 338 339 339 340 341 342 343 343 343 343 342 341 340 339 339 340 342 343 344 345 346 346 345 344 344 343 343 343 344 344 345 346 346 346 346 345 345 344 343 343 343
333 330 328 333 348 357 352 344 349 356 359 354 347 341 338 339 337 335 334 333 333 333 334 334 333 331 329 327 324 323 325 336 342 344 343 341 340 339 339 339 339 339 338 338 338 338 338 339 340 341 343 343 343 343 341 340 339 338 337 338 340 341 343 345 345 345 346 345 345 344 344 344 344 344 344 345 346 346 346 346 345 344 343 343 343 343
344 340 332 331 345 5 5 346 341 346 357 352 346 340 340 340 339 337 337 337 337 337 338 338 336 333 330 327 325 325 329 339 343 343 341 339 337 337 337 338 338 338 338 338 338 338 338 338 340 341 343 343 343 342 340 338 337 336 336 337 339 342 344 345 345 345 345 345 345 344 344 344 344 344 344 345 346 346 346 345 345 343 343 342 342 343
351 347 343 338 345 359 8 350 340 340 348 346 343 341 347 347 344 340 338 335 336 337 338 338 335 333 330 328 327 329 335 340 342 341 340 337 335 335 336 336 336 336 336 337 337 337 337 338 340 342 343 343 342 340 338 336 335 334 335 337 340 342 344 345 345 345 345 345 345 345 344 344 344 344 345 345 346 346 345 345 344 343 343 342 342 343
359 353 350 345 347 353 357 348 341 339 346 349 349 350 352 352 348 341 335 332 332 333 334 332 331 329 325 323 325 330 340 341 340 338 336 334 334 334 334 335 335 335 336 336 336 336 336 337 340 342 343 342 341 338 336 334 333 334 335 338 341 343 344 345 345 344 344 344 345 345 345 345 345 345 345 345 345 345 345 344 344 343 342 342 342 343
6 1 355 349 349 350 352 351 350 350 355 358 355 351 344 342 341 336 328 325 327 328 329 328 327 325 319 316 322 331 339 339 336 334 333 332 332 332 332 333 334 335 336 335 334 334 335 338 341 343 343 341 338 336 334 333 333 334 337 340 342 344 344 344 344 344 344 344 344 345 345 345 345 345 345 345 345 345 344 344 343 343 342 342 342 343
10 4 0 355 352 351 355 357 356 356 356 356 351 342 332 330 331 331 328 325 325 325 325 325 324 322 318 319 327 335 341 336 334 332 332 330 330 330 332 332 333 334 335 335 333 332 334 338 341 342 342 339 336 334 332 332 333 335 339 342 343 344 344 344 344 344 344 344 344 344 345 345 345 345 345 345 344 344 344 343 343 342 342 342 343 344
15 10 6 359 353 351 353 358 358 355 348 344 338 333 327 329 332 334 334 330 328 327 328 325 323 321 318 322 334 343 345 338 334 331 330 328 328 330 334 334 334 335 336 335 333 331 334 339 341 340 339 336 334 333 332 333 335 339 341 344 345 345 344 344 344 344 344 344 344 344 345 345 345 345 344 344 344 344 343 343 342 342 342 342 343 344
20 17 10 359 352 347 348 353 353 348 340 337 336 336 336 336 337 337 336 331 330 331 334 333 331 328 323 326 338 347 347 340 334 330 327 327 329 335 341 338 337 336 337 336 333 332 336 340 341 339 335 333 332 332 332 333 337 341 343 345 345 344 343 343 344 344 344 344 344 344 344 344 344 344 344 344 344 344 343 343 342 342 342 342 344 345
27 23 11 359 350 343 340 346 347 344 337 335 336 338 339 337 336 336 335 332 333 335 338 339 337 333 328 332 342 349 349 340 332 327 326 326 330 338 347 343 339 336 335 334 333 334 338 340 340 336 332 332 332 332 333 335 339 343 346 346 345 344 343 343 344 344 344 344 344 344 344 344 344 344 344 344 344 344 343 343 342 342 342 343 344 346
28 24 14 0 347 338 336 342 343 341 338 337 336 336 335 336 336 335 335 334 335 336 336 337 334 330 327 328 333 340 344 337 330 325 326 326 330 337 347 345 340 335 333 333 334 336 340 340 338 335 330 331 332 333 334 338 342 345 346 345 344 343 343 343 344 344 344 344 344 344 343 343 344 344 344 344 344 344 344 343 342 342 342 344 345 346
25 23 18 359 341 332 334 343 346 344 343 341 338 336 336 338 339 338 336 336 335 334 332 331 328 325 322 318 321 327 334 330 327 326 328 328 331 336 346 344 340 336 333 333 335 338 340 336 333 331 330 330 331 333 336 340 344 346 345 344 343 343 343 344 344 345 345 344 344 343 343 343 343 343 344 344 344 344 344 343 342 342 343 344 346 347
23 19 16 354 340 336 335 342 344 344 342 340 338 336 336 336 337 338 336 334 332 329 327 325 324 321 318 315 316 321 327 330 331 331 329 328 329 335 344 344 340 335 332 333 336 339 338 334 330 328 328 329 331 334 338 342 344 345 344 343 342 343 343 344 345 345 344 344 344 343 343 343 343 343 344 344 344 344 344 343 343 342 343 344 346 347
23 358 324 350 358 350 336 332 333 336 339 339 337 336 336 336 336 335 333 332 330 329 329 327 323 319 315 314 314 317 324 334 339 337 329 327 328 335 343 343 339 334 331 333 335 337 335 332 328 325 325 328 332 336 340 343 344 344 343 342 342 343 344 344 345 344 344 344 343 343 343 343 343 343 344 344 344 344 344 343 343 343 343 344 346 346
42 338 297 322 353 342 323 309 312 322 334 337 339 340 341 339 336 332 330 330 329 329 329 324 318 312 308 305 306 311 325 338 343 340 331 328 329 334 341 340 337 333 332 332 334 334 332 328 324 322 322 327 332 337 340 342 342 342 341 341 342 343 344 344 344 344 344 343 343 343 343 343 343 343 344 344 344 344 344 343 343 342 343 344 345 345
77 322 291 289 280 274 284 283 289 303 323 328 335 340 344 338 331 326 324 324 324 323 319 312 306 302 298 298 304 315 330 339 345 344 337 331 329 331 337 338 336 334 332 332 331 330 328 325 321 320 321 329 333 337 340 341 341 341 340 341 342 343 344 344 344 344 343 343 343 343 343 343 343 343 344 344 344 344 344 343 343 342 343 343 344 344
108 241 264 258 252 252 259 272 285 296 306 313 326 343 353 342 328 317 310 312 315 315 311 307 305 305 303 311 318 325 331 338 348 353 346 332 327 328 333 336 336 334 330 329 328 326 324 321 318 317 317 329 334 337 339 339 339 339 340 341 342 342 343 343 343 343 343 343 343 343 343 343 343 343 344 344 344 344 343 343 343 342 342 343 343 342
176 217 241 256 279 301 321 329 333 334 334 337 350 6 11 355 338 323 310 315 319 319 316 318 321 325 324 331 333 332 328 335 352 0 351 333 326 326 331 336 336 331 327 326 325 324 320 318 317 317 318 328 334 336 337 338 338 339 339 340 341 342 342 342 342 343 343 343 343 343 343 343 343 344 344 344 344 344 343 343 343 342 342 342 342 341
4 325 320 333 343 350 355 354 353 352 354 357 6 21 27 5 348 336 333 337 335 333 331 333 334 334 332 335 335 332 326 331 350 2 353 334 326 326 331 337 335 330 325 325 325 324 320 318 318 321 326 329 333 335 335 336 337 338 339 340 341 341 342 342 342 342 343 343 343 343 343 343 343 344 344 344 344 344 343 343 343 342 342 342 341 339
4 1 359 360 1 2 2 0 358 357 358 1 6 16 29 16 0 352 350 346 343 341 342 342 339 336 336 338 335 329 321 327 342 355 350 335 328 326 332 337 335 331 326 325 324 323 318 317 318 323 328 329 330 332 334 335 336 337 338 339 340 341 341 341 342 342 343 343 343 343 343 343 343 343 344 344 344 343 343 343 343 343 342 342 340 337
7 7 7 6 6 6 5 2 360 359 1 3 6 11 23 25 14 1 350 342 342 344 346 344 340 337 335 335 329 321 314 323 339 347 344 335 329 327 330 334 335 332 328 323 319 316 314 312 315 321 327 329 330 330 331 333 334 336 337 338 339 340 340 341 341 342 343 343 343 342 342 343 343 343 343 343 343 343 343 343 343 343 343 341 338 332
4 6 7 7 7 6 6 2 359 358 1 4 6 9 17 28 21 357 336 335 340 344 343 341 338 335 329 325 320 314 311 323 338 343 341 336 330 327 329 334 336 334 331 324 319 316 313 312 317 325 329 331 331 330 329 331 333 334 336 337 338 339 339 340 341 342 342 342 342 342 342 342 343 343 343 343 343 343 343 343 344 343 343 340 336 331
353 357 1 0 1 2 1 356 353 355 358 1 3 4 8 18 3 326 320 331 339 342 338 335 333 331 328 325 323 322 321 330 338 341 341 337 331 327 330 333 336 337 337 330 326 324 321 322 329 333 333 332 331 330 328 330 331 332 333 336 337 337 339 340 341 342 342 342 342 342 342 342 342 342 342 342 342 343 343 344 344 344 341 337 334 331
330 338 337 339 342 346 346 341 342 347 352 355 356 355 355 351 323 298 312 326 334 335 332 330 329 328 329 330 329 327 322 326 333 337 339 334 327 325 329 330 332 336 341 337 331 326 322 323 329 334 335 331 329 328 328 329 330 332 332 334 334 335 337 339 340 341 341 341 341 341 341 341 341 341 342 342 342 342 343 344 344 344 340 336 333 331
322 329 331 327 328 330 334 334 333 334 337 341 340 338 336 333 323 309 304 311 318 323 324 322 322 323 324 323 320 315 310 313 323 330 333 328 321 320 326 326 327 330 335 334 328 320 316 318 322 327 332 330 328 327 327 329 330 332 332 333 332 333 336 338 339 340 339 340 340 340 340 340 340 340 341 341 341 341 342 343 343 343 340 336 333 331
333 337 337 336 336 335 334 331 329 327 323 319 316 314 317 318 316 311 300 295 300 308 314 316 317 317 317 313 307 302 298 300 314 322 327 324 319 317 322 324 325 326 327 327 321 312 305 308 313 318 323 325 325 325 325 328 330 332 332 332 331 331 335 337 338 338 338 338 338 338 338 338 339 339 339 339 340 340 341 342 342 342 340 336 333 331
345 345 343 341 339 336 331 328 325 321 318 315 311 310 308 305 306 307 303 298 293 293 297 303 308 311 313 311 308 304 300 300 309 317 324 322 318 316 320 324 325 326 327 326 323 318 308 309 312 315 317 319 321 323 324 326 329 331 331 330 330 330 332 335 336 336 336 336 336 335 336 336 337 337 337 338 338 339 339 340 340 340 339 337 335 332
353 347 342 340 338 336 331 327 324 321 318 315 312 310 309 305 304 304 306 306 303 297 288 284 287 294 303 307 308 308 307 305 311 316 321 320 317 316 319 323 326 327 327 325 325 323 317 316 316 317 316 317 318 321 323 325 326 327 327 328 328 328 330 333 334 334 334 334 334 333 334 334 334 335 335 335 336 336 337 337 338 338 338 337 336 334
354 347 339 337 337 337 333 329 326 325 323 319 316 314 313 312 310 310 311 313 313 311 306 294 285 281 282 290 297 301 303 304 310 316 320 320 319 318 318 322 326 327 326 325 324 323 319 316 317 318 318 318 319 320 322 324 325 327 327 328 328 328 328 331 332 332 332 333 333 333 333 332 333 332 332 333 333 334 334 335 335 335 336 336 336 335
354 345 337 336 336 337 335 332 331 331 331 329 326 324 322 321 320 319 318 318 317 315 313 308 302 297 294 291 290 292 295 300 307 314 322 324 324 322 320 320 324 327 326 324 322 321 319 317 317 319 320 320 319 320 322 325 327 329 329 329 328 328 328 330 331 332 331 332 331 331 331 331 331 330 329 330 331 332 333 333 333 334 334 334 334 334
353 345 339 337 338 338 338 336 337 338 338 335 332 330 328 327 325 324 323 321 317 315 312 312 308 305 303 300 298 295 295 301 308 316 327 331 332 330 324 320 322 324 323 320 319 318 318 318 319 320 319 318 317 317 319 323 325 326 326 325 325 325 327 329 331 332 332 330 329 328 329 329 329 328 328 330 331 331 331 331 332 332 332 332 333 333
351 344 339 340 340 339 337 337 338 338 337 335 333 331 331 331 330 327 323 320 318 316 312 311 310 306 303 300 300 302 304 309 316 323 330 332 332 328 325 321 320 319 319 318 316 315 314 314 315 315 315 316 316 317 319 322 322 322 322 322 324 327 329 331 332 332 332 329 328 327 327 327 327 327 327 329 329 330 329 328 329 330 331 331 330 330
349 343 339 339 338 337 334 333 332 332 334 333 332 332 334 335 333 330 325 324 323 321 317 315 312 308 304 304 304 305 308 311 317 322 326 326 325 324 323 321 319 319 320 318 316 313 311 309 308 307 309 310 313 316 318 321 322 323 324 325 327 330 333 333 332 332 330 328 327 326 326 326 327 328 328 328 328 328 327 325 326 327 328 329 329 328
348 342 335 334 333 332 330 328 329 332 335 335 336 338 340 340 338 335 333 334 334 333 328 325 320 314 309 307 304 302 303 304 308 313 316 317 318 319 321 321 320 319 319 318 316 313 311 309 308 308 309 309 310 311 313 316 319 321 324 325 323 323 325 328 330 330 329 327 326 325 325 325 327 328 327 326 325 323 321 320 320 322 324 326 326 326
347 341 332 330 329 329 328 328 332 336 337 338 340 341 342 341 340 340 341 342 342 341 340 338 334 330 326 320 313 308 305 302 306 311 314 315 317 319 321 321 321 319 318 317 315 313 311 309 308 308 309 310 311 312 312 313 316 320 324 323 322 321 320 325 329 329 329 327 326 325 326 326 326 326 325 324 322 319 318 318 319 321 322 323 323 320
340 333 325 324 322 322 323 330 335 339 341 344 345 344 342 340 341 342 343 344 342 340 339 339 337 334 332 329 326 323 316 307 306 310 316 316 318 319 322 320 319 317 318 317 316 313 311 310 307 305 303 306 307 307 308 310 314 319 322 325 327 328 326 328 329 329 327 325 324 324 325 325 324 322 322 320 318 317 316 317 318 319 320 318 316 314
329 325 322 325 327 330 336 341 344 344 344 345 345 345 341 341 342 343 345 343 340 338 337 337 334 333 332 331 330 329 326 321 317 317 319 326 328 329 325 319 315 312 313 315 314 314 313 311 307 303 300 302 302 303 304 308 313 319 323 327 328 328 323 321 322 324 324 323 323 323 324 323 322 320 319 319 318 317 318 318 317 317 317 315 313 311
325 327 331 336 341 344 346 346 347 348 350 350 350 347 342 342 343 345 346 343 340 338 337 336 336 335 336 334 333 331 330 330 332 331 326 330 331 331 326 321 317 314 312 309 307 307 309 308 306 303 302 300 298 297 299 305 312 318 323 326 325 322 315 315 317 320 321 321 322 323 324 323 322 321 321 321 321 321 320 319 318 317 316 316 315 313
338 338 339 342 345 347 346 348 351 352 352 352 351 349 345 343 343 344 346 344 341 339 338 338 339 338 336 334 333 332 333 334 336 337 337 334 332 329 325 324 323 321 317 308 301 295 292 293 296 299 303 304 299 292 288 301 313 319 322 324 323 320 316 317 318 319 319 319 320 321 323 323 324 323 322 322 321 320 319 318 317 317 316 316 316 315
345 344 344 344 345 346 347 350 352 353 352 352 351 349 346 344 344 345 346 344 341 338 337 338 339 338 335 333 333 333 334 334 335 336 337 336 335 332 329 327 326 324 319 312 305 297 289 284 284 288 295 300 300 299 297 307 316 320 320 321 321 320 319 319 319 319 318 318 318 320 323 325 326 325 323 322 320 319 318 318 316 315 314 315 315 316
351 349 348 348 349 350 353 352 352 352 351 351 350 349 347 346 347 347 345 343 340 338 338 339 338 336 333 332 332 333 334 334 334 334 335 335 335 335 334 332 329 325 320 314 307 299 289 281 276 272 272 276 286 296 307 315 318 319 318 319 319 319 319 317 318 318 317 317 318 320 323 325 326 325 323 322 320 319 319 319 318 317 315 314 315 315
354 351 350 350 352 354 355 353 352 352 352 350 349 347 345 345 346 346 343 341 340 339 339 338 337 335 334 332 332 333 334 334 333 333 334 334 334 334 334 334 332 328 324 319 312 302 290 278 268 259 249 245 260 289 306 313 316 316 316 317 318 318 317 317 317 318 318 318 319 321 323 323 322 321 320 320 319 318 318 318 318 317 317 317 315 315
354 351 349 349 351 353 354 353 353 353 351 349 348 345 342 342 342 342 340 339 339 339 339 337 335 333 332 332 333 334 336 335 334 334 335 335 335 335 334 334 334 332 330 328 326 323 317 306 285 268 259 273 297 313 313 314 315 316 317 318 319 318 317 316 317 318 320 320 321 322 323 322 321 321 321 319 317 316 316 317 318 319 320 320 319 318
352 349 348 347 349 352 353 352 353 353 350 348 346 344 341 340 339 339 339 340 340 338 337 335 334 333 332 332 333 335 337 336 335 335 335 334 334 334 334 335 335 335 334 334 334 334 334 332 327 319 314 332 342 344 325 320 320 321 322 322 321 320 318 316 316 318 320 320 321 322 322 323 323 324 324 321 318 317 317 318 318 319 321 322 322 320